IRIDIUM 38

Last updated on Wed Nov 29 2017 00:19:02 GMT+0000 (Coordinated Universal Time)

1 25043U 97069E 17332.45571212 .00000155 00000-0 46634-4 0 9996 2 25043 86.3937 310.2613 0003571 94.5145 265.6460 14.36063961 50308

Satellite not in orbit

IRIDIUM 38